EW9081 Weather Reports


time (UTC)temp
C
wind
direction
speed
KPH
gust
KPH
rain 1hr
cm
rain 24hr
cm
rain mn
cm
humidity
%
barometer
mb
20260504223810 20 230 8.0 20.9 0.00 0.00 0.00 65 1011.8
20260504223806 20 248 8.0 17.7 0.00 0.00 0.00 68 1011.8
20260504222812 20 252 6.4 17.7 0.00 0.00 0.00 64 1011.8
20260504222807 20 241 8.0 20.9 0.00 0.00 0.00 64 1011.8
20260504221806 20 196 6.4 16.1 0.00 0.00 0.00 64 1011.8
20260504221307 20 205 8.0 16.1 0.00 0.00 0.00 66 1011.9
20260504220806 20 238 9.7 17.7 0.00 0.00 0.00 63 1011.9
20260504220310 20 220 8.0 17.7 0.00 0.00 0.00 64 1012.0
20260504220305 20 226 6.4 17.7 0.00 0.00 0.00 67 1012.0
20260504215304 20 267 6.4 16.1 0.00 0.00 0.00 67 1012.0
20260504214805 20 259 8.0 17.7 0.00 0.00 0.00 66 1012.0
20260504214305 20 176 9.7 19.3 0.00 0.00 0.00 64 1012.1
20260504213809 20 286 6.4 19.3 0.00 0.00 0.00 64 1012.2
20260504213805 20 222 8.0 19.3 0.00 0.00 0.00 63 1012.2
20260504212804 20 216 4.8 16.1 0.00 0.00 0.00 68 1012.3
20260504212309 20 287 8.0 20.9 0.00 0.00 0.00 66 1012.4
20260504212304 20 223 6.4 14.5 0.00 0.00 0.00 67 1012.2
20260504211803 20 244 6.4 14.5 0.00 0.00 0.00 69 1012.3
20260504211302 20 234 8.0 20.9 0.00 0.00 0.00 64 1012.3
20260504210302 21 285 6.4 16.1 0.00 0.00 0.00 66 1012.4
20260504205806 21 262 4.8 12.9 0.00 0.00 0.00 66 1012.5
20260504205802 20 273 6.4 16.1 0.00 0.00 0.00 68 1012.5
20260504204808 21 282 4.8 16.1 0.00 0.00 0.00 65 1012.7
20260504204802 21 265 4.8 12.9 0.00 0.00 0.00 65 1012.6
20260504203801 20 215 4.8 16.1 0.00 0.00 0.00 67 1012.7
20260504203307 20 229 4.8 16.1 0.00 0.00 0.00 62 1012.7
20260504203303 20 201 6.4 16.1 0.00 0.00 0.00 65 1012.7
20260504202915 20 293 4.8 14.5 0.00 0.00 0.00 65 1012.7
20260504201802 20 235 4.8 14.5 0.00 0.00 0.00 68 1012.7
20260504201303 20 257 4.8 14.5 0.00 0.00 0.00 66 1012.8
20260504200803 20 212 4.8 14.5 0.00 0.00 0.00 62 1012.7
20260504200259 20 254 3.2 9.7 0.00 0.00 0.00 68 1012.8
20260504195759 20 302 3.2 8.0 0.00 0.00 0.00 64 1012.8
20260504195305 20 232 3.2 8.0 0.00 0.00 0.00 63 1012.8
20260504195300 20 236 3.2 8.0 0.00 0.00 0.00 63 1012.8
20260504194300 20 253 3.2 8.0 0.00 0.00 0.00 72 1012.9
20260504193800 20 202 3.2 11.3 0.00 0.00 0.00 64 1012.9
20260504193259 20 304 1.6 11.3 0.00 0.00 0.00 69 1012.9
20260504192800 19 311 3.2 11.3 0.00 0.00 0.00 63 1012.9
20260504192300 19 288 3.2 11.3 0.00 0.00 0.00 67 1012.9
20260504191759 19 260 1.6 11.3 0.00 0.00 0.00 66 1012.9
20260504191259 19 218 3.2 11.3 0.00 0.00 0.00 66 1012.9
20260504190759 19 252 3.2 9.7 0.00 0.00 0.00 67 1013.1
20260504190304 18 187 3.2 8.0 0.00 0.00 0.00 69 1013.2
20260504190300 18 218 3.2 9.7 0.00 0.00 0.00 67 1013.1
20260504185300 18 158 3.2 8.0 0.00 0.00 0.00 70 1013.2
20260504184800 18 281 3.2 8.0 0.00 0.00 0.00 70 1013.3
20260504184301 18 215 3.2 8.0 0.00 0.00 0.00 70 1013.3
20260504183800 18 158 3.2 9.7 0.00 0.00 0.00 72 1013.3
20260504183300 18 111 4.8 11.3 0.00 0.00 0.00 73 1013.4
20260504182757 18 177 3.2 11.3 0.00 0.00 0.00 72 1013.3
20260504182257 17 166 3.2 8.0 0.00 0.00 0.00 73 1013.3
20260504181758 17 169 3.2 9.7 0.00 0.00 0.00 72 1013.3
20260504181257 17 198 3.2 9.7 0.00 0.00 0.00 72 1013.3
20260504180758 17 163 3.2 9.7 0.00 0.00 0.00 72 1013.2
20260504180303 16 179 4.8 12.9 0.00 0.00 0.00 73 1013.3
20260504180259 17 232 3.2 6.4 0.00 0.00 0.00 73 1013.3
20260504175259 16 225 4.8 12.9 0.00 0.00 0.00 75 1013.2
20260504174757 16 180 4.8 9.7 0.00 0.00 0.00 75 1013.3
20260504174258 16 211 4.8 11.3 0.00 0.00 0.00 77 1013.4
20260504173803 16 196 3.2 11.3 0.00 0.00 0.00 74 1013.4
20260504173759 16 220 4.8 11.3 0.00 0.00 0.00 74 1013.3
20260504172802 15 209 3.2 9.7 0.00 0.00 0.00 76 1013.5
20260504172758 16 230 3.2 8.0 0.00 0.00 0.00 73 1013.4
20260504171803 15 215 3.2 9.7 0.00 0.00 0.00 76 1013.5
20260504171757 15 175 3.2 9.7 0.00 0.00 0.00 76 1013.5
20260504171411 15 157 4.8 9.7 0.00 0.00 0.00 77 1013.5
20260504170257 15 190 4.8 9.7 0.00 0.00 0.00 77 1013.5
20260504160251 13 248 6.4 12.9 0.00 0.00 0.00 82 1013.4
20260504150745 12 234 6.4 19.3 0.00 0.00 0.00 84 1013.1
20260504150245 12 248 6.4 19.3 0.00 0.00 0.00 84 1013.1
20260504141246 12 246 6.4 16.1 0.00 0.00 0.00 86 1012.5
20260504141241 12 232 4.8 16.1 0.00 0.00 0.00 86 1012.6
20260504140242 12 319 4.8 14.5 0.00 0.00 0.00 86 1012.5
20260504130739 11 207 4.8 22.5 0.00 0.00 0.00 87 1011.8
20260504130239 11 315 4.8 22.5 0.00 0.00 0.00 87 1011.7
20260504120242 11 217 4.8 22.5 0.00 0.00 0.00 88 1011.2
20260504120238 11 230 6.4 22.5 0.00 0.00 0.00 88 1011.3
20260504110236 11 224 4.8 16.1 0.00 0.00 0.00 88 1010.8
20260504100238 11 233 4.8 19.3 0.00 0.00 0.00 88 1010.3
20260504100233 11 232 6.4 20.9 0.00 0.00 0.00 89 1010.4
20260504081732 11 279 6.4 20.9 0.00 0.00 0.00 87 1010.0
20260504081234 12 275 6.4 19.3 0.00 0.00 0.00 87 1009.9
20260504080739 12 254 6.4 19.3 0.00 0.00 0.00 86 1009.9
20260504080733 12 271 6.4 19.3 0.00 0.00 0.00 86 1009.9
20260504080233 12 239 6.4 19.3 0.00 0.00 0.00 86 1010.0
20260504060230 14 250 6.4 16.1 0.00 0.00 0.00 77 1009.2
20260504050727 16 226 4.8 19.3 0.00 0.00 0.00 68 1008.7
20260504050225 17 279 4.8 19.3 0.00 0.00 0.00 67 1008.6
20260504045729 17 231 4.8 14.5 0.00 0.00 0.00 64 1008.4
20260504045725 17 246 4.8 19.3 0.00 0.00 0.00 66 1008.4
20260504044726 18 251 4.8 12.9 0.00 0.00 0.00 63 1008.3
20260504044227 18 238 4.8 12.9 0.00 0.00 0.00 61 1008.2
20260504043725 19 309 4.8 12.9 0.00 0.00 0.00 59 1008.1
20260504043223 20 234 3.2 11.3 0.00 0.00 0.00 56 1008.0
20260504042723 20 240 1.6 6.4 0.00 0.00 0.00 55 1007.9
20260504042223 21 327 3.2 12.9 0.00 0.00 0.00 53 1007.8
20260504041722 21 272 3.2 12.9 0.00 0.00 0.00 51 1007.7
20260504041223 21 226 3.2 14.5 0.00 0.00 0.00 50 1007.6
20260504040723 22 288 3.2 14.5 0.00 0.00 0.00 49 1007.5
20260504040222 22 259 3.2 11.3 0.00 0.00 0.00 48 1007.4
20260504035723 22 266 3.2 8.0 0.00 0.00 0.00 47 1007.4
20260504035222 23 281 3.2 8.0 0.00 0.00 0.00 46 1007.4
20260504034728 23 239 3.2 14.5 0.00 0.00 0.00 44 1007.3
20260504034723 23 262 3.2 14.5 0.00 0.00 0.00 44 1007.3
20260504033722 23 214 3.2 14.5 0.00 0.00 0.00 43 1007.3
20260504033222 23 267 1.6 9.7 0.00 0.00 0.00 43 1007.3
20260504032724 23 258 1.6 4.8 0.00 0.00 0.00 42 1007.2
20260504032222 23 272 0.0 3.2 0.00 0.00 0.00 42 1007.0
20260504031722 24 240 1.6 9.7 0.00 0.00 0.00 41 1007.1
20260504031229 25 281 1.6 8.0 0.00 0.00 0.00 39 1007.0
20260504031223 24 265 1.6 9.7 0.00 0.00 0.00 40 1007.0
20260504030722 25 254 1.6 9.7 0.00 0.00 0.00 40 1007.0
20260504030222 25 257 1.6 9.7 0.00 0.00 0.00 40 1007.0
20260504025722 25 254 1.6 6.4 0.00 0.00 0.00 39 1006.9
20260504024722 25 251 1.6 8.0 0.00 0.00 0.00 39 1007.0
20260504024222 26 273 1.6 8.0 0.00 0.00 0.00 37 1006.9
20260504023724 26 255 1.6 8.0 0.00 0.00 0.00 38 1006.9
20260504023224 26 246 1.6 8.0 0.00 0.00 0.00 38 1006.9
20260504022724 27 251 1.6 8.0 0.00 0.00 0.00 39 1006.9
20260504022224 27 234 1.6 8.0 0.00 0.00 0.00 39 1006.9
20260504021727 27 246 1.6 6.4 0.00 0.00 0.00 39 1006.9
20260504021723 27 230 1.6 6.4 0.00 0.00 0.00 40 1006.8
20260504020723 28 261 1.6 6.4 0.00 0.00 0.00 39 1006.9
20260504020221 28 270 1.6 8.0 0.00 0.00 0.00 39 1006.9
20260504015833 29 240 1.6 6.4 0.00 0.00 0.00 38 1006.9
20260504015724 29 250 1.6 6.4 0.00 0.00 0.00 38 1006.9
20260504015718 28 238 1.6 8.0 0.00 0.00 0.00 37 1006.9
20260504014219 29 257 3.2 11.3 0.00 0.00 0.00 41 1006.9
20260504013719 29 277 4.8 11.3 0.00 0.00 0.00 39 1006.9
20260504013222 29 205 4.8 11.3 0.00 0.00 0.00 39 1006.9
20260504013218 29 232 4.8 11.3 0.00 0.00 0.00 37 1006.8
20260504012217 30 228 3.2 11.3 0.00 0.00 0.00 38 1006.9
20260504011714 30 251 1.6 6.4 0.00 0.00 0.00 37 1006.9
20260504011214 30 250 1.6 6.4 0.00 0.00 0.00 36 1006.9
20260504010711 31 255 1.6 6.4 0.00 0.00 0.00 36 1007.0
20260504010212 31 255 1.6 6.4 0.00 0.00 0.00 38 1007.0
20260504005710 31 272 0.0 6.4 0.00 0.00 0.00 34 1007.1
20260504005211 32 238 0.0 3.2 0.00 0.00 0.00 37 1007.1
20260504004710 31 178 0.0 3.2 0.00 0.00 0.00 39 1007.1
20260504004211 31 178 1.6 4.8 0.00 0.00 0.00 34 1007.1
20260504003711 31 178 1.6 4.8 0.00 0.00 0.00 27 1007.1
20260504003210 31 176 1.6 8.0 0.00 0.00 0.00 32 1007.1
20260504002708 31 178 1.6 8.0 0.00 0.00 0.00 28 1007.1
20260504002206 31 167 0.0 4.8 0.00 0.00 0.00 32 1007.2
20260504001708 31 167 1.6 8.0 0.00 0.00 0.00 37 1007.1
20260504001202 31 166 1.6 8.0 0.00 0.00 0.00 37 1007.2
20260504000704 31 175 0.0 3.2 0.00 0.00 0.00 29 1007.1
20260504000204 31 182 1.6 6.4 0.00 0.00 0.00 34 1007.1
20260503235702 31 184 1.6 6.4 0.00 0.00 0.00 36 1007.1
20260503235202 31 13 1.6 4.8 0.00 0.00 0.00 34 1007.2
20260503234706 31 355 1.6 3.2 0.00 0.00 0.00 40 1007.2
20260503234702 31 180 1.6 3.2 0.00 0.00 0.00 36 1007.2
20260503233702 31 346 1.6 4.8 0.00 0.00 0.00 36 1007.3
20260503233203 31 329 1.6 4.8 0.00 0.00 0.00 34 1007.3
20260503232701 31 44 0.0 4.8 0.00 0.00 0.00 30 1007.4
20260503232208 31 21 1.6 4.8 0.00 0.00 0.00 32 1007.7
20260503232200 31 331 1.6 3.2 0.00 0.00 0.00 31 1007.5
20260503231700 31 323 1.6 4.8 0.00 0.00 0.00 40 1007.5
20260503231200 31 318 1.6 4.8 0.00 0.00 0.00 33 1007.5
20260503230819 31 22 1.6 4.8 0.00 0.00 0.00 41 1007.8
20260503230701 31 26 1.6 4.8 0.00 0.00 0.00 33 1007.6
20260503230426 31 313 1.6 3.2 0.00 0.00 0.00 33 1007.9
20260503225313 31 334 1.6 4.8 0.00 0.00 0.00 35 1007.9
20260503224813 31 12 1.6 4.8 0.00 0.00 0.00 39 1008.1